User: anonymous   Login
Location: Skalnate Pleso
(49.1889°N, 20.2450°E)
Time: 21:09:54
(UTC+01:00)
Language:

ADEOS Rocket - Orbit

View from above orbital plane
View from above orbital plane
View from above satellite
View from above satellite

Ground track
Ground track

The orbit data is extracted from the following two-line orbital elements,

1 24279U 96046C   20020.57081875 -.00000008 +00000-0 +33647-4 0  9990
2 24279 098.6925 221.4699 0300474 033.6647 026.7184 13.47135286151527
Epoch (UTC): 20 January 2020 13:41:58
Eccentricity: 0.0300474
inclination: 98.6925°
perigee height: 858 km
apogee height: 1307 km
right ascension of ascending node: 221.4699°
argument of perigee: 33.6647°
revolutions per day: 13.47135286
mean anomaly at epoch: 26.7184°
orbit number at epoch: 15152

The dashed part of the orbit path shows where the satellite is in the earth's shadow,  

DLR